�������l�o���
Date,Time,MP-1(��Sv/h),MP-2(��Sv/h),MP-3(��Sv/h),MP-4(��Sv/h),MP-5(��Sv/h),MP-6(��Sv/h),MP-7(��Sv/h),����,����(m/s),���J
2024/04/01,00:00,0.145,0.126,0.207,0.196,0.204,0.115,0.075,�k�k��,3.3,��
2024/04/01,00:10,0.145,0.127,0.207,0.196,0.206,0.115,0.075,�k�k��,2.8,��
2024/04/01,00:20,0.146,0.126,0.206,0.195,0.205,0.115,0.074,�k,6.2,��
2024/04/01,00:30,0.146,0.126,0.207,0.195,0.206,0.115,0.074,�k�k��,5.1,��
2024/04/01,00:40,0.145,0.126,0.207,0.196,0.205,0.114,0.074,�k�k��,5.3,��
2024/04/01,00:50,0.146,0.125,0.207,0.195,0.205,0.114,0.075,�k�k��,5.9,��
2024/04/01,01:00,0.145,0.126,0.207,0.196,0.206,0.114,0.074,�k�k��,6.6,��
2024/04/01,01:10,0.146,0.126,0.206,0.195,0.206,0.114,0.075,�k�k��,5.9,��
2024/04/01,01:20,0.147,0.125,0.206,0.195,0.205,0.115,0.076,�k�k��,6.2,��
2024/04/01,01:30,0.146,0.127,0.206,0.196,0.205,0.115,0.075,�k�k��,6.5,��
2024/04/01,01:40,0.146,0.126,0.207,0.196,0.204,0.114,0.075,�k�k��,6.4,��
2024/04/01,01:50,0.146,0.126,0.206,0.195,0.206,0.115,0.075,�k�k��,5.7,��
2024/04/01,02:00,0.145,0.126,0.206,0.195,0.206,0.114,0.075,�k,6.8,��
2024/04/01,02:10,0.145,0.126,0.206,0.196,0.205,0.115,0.075,�k�k��,5.9,��
2024/04/01,02:20,0.145,0.127,0.207,0.195,0.205,0.115,0.075,�k,6.6,��
2024/04/01,02:30,0.146,0.127,0.205,0.195,0.206,0.115,0.075,�k,7.2,��
2024/04/01,02:40,0.146,0.128,0.206,0.196,0.204,0.115,0.075,�k�k��,6.4,��
2024/04/01,02:50,0.146,0.127,0.206,0.196,0.206,0.114,0.075,�k�k��,6.9,��
2024/04/01,03:00,0.147,0.127,0.206,0.195,0.205,0.115,0.075,�k,5.8,��
2024/04/01,03:10,0.146,0.126,0.207,0.196,0.205,0.115,0.074,�k,5.1,��
2024/04/01,03:20,0.145,0.126,0.206,0.196,0.205,0.115,0.075,�k,5.5,��
2024/04/01,03:30,0.145,0.126,0.207,0.196,0.205,0.115,0.075,�k,5.1,��
2024/04/01,03:40,0.145,0.126,0.207,0.195,0.205,0.115,0.075,�k�k��,5.2,��
2024/04/01,03:50,0.145,0.126,0.207,0.195,0.206,0.114,0.075,�k�k��,5.4,��
2024/04/01,04:00,0.145,0.127,0.207,0.196,0.204,0.115,0.075,�k�k��,6.2,��
2024/04/01,04:10,0.146,0.126,0.207,0.196,0.205,0.115,0.075,�k�k��,6.8,��
2024/04/01,04:20,0.147,0.127,0.205,0.196,0.205,0.115,0.075,�k�k��,7.3,��
2024/04/01,04:30,0.145,0.127,0.207,0.196,0.205,0.114,0.075,�k�k��,6.4,��
2024/04/01,04:40,0.147,0.127,0.206,0.196,0.206,0.116,0.074,�k�k��,5.9,��
2024/04/01,04:50,0.145,0.126,0.208,0.196,0.205,0.114,0.075,�k�k��,6.0,��
2024/04/01,05:00,0.146,0.126,0.206,0.195,0.206,0.115,0.075,�k�k��,7.1,��
2024/04/01,05:10,0.146,0.126,0.206,0.196,0.205,0.114,0.074,�k�k��,6.2,��
2024/04/01,05:20,0.145,0.126,0.208,0.195,0.204,0.114,0.075,�k�k��,6.7,��
2024/04/01,05:30,0.145,0.126,0.207,0.196,0.204,0.114,0.075,�k�k��,7.4,��
2024/04/01,05:40,0.146,0.126,0.207,0.196,0.206,0.115,0.075,�k�k��,7.7,��
2024/04/01,05:50,0.146,0.126,0.207,0.196,0.204,0.114,0.075,�k�k��,6.9,��
2024/04/01,06:00,0.146,0.126,0.206,0.196,0.205,0.115,0.075,�k�k��,7.6,��
2024/04/01,06:10,0.145,0.126,0.207,0.196,0.205,0.115,0.075,�k�k��,6.7,��
2024/04/01,06:20,0.146,0.127,0.206,0.197,0.204,0.115,0.074,�k�k��,6.4,��
2024/04/01,06:30,0.145,0.126,0.207,0.196,0.205,0.115,0.075,�k�k��,5.6,��
2024/04/01,06:40,0.146,0.127,0.207,0.195,0.205,0.114,0.075,�k�k��,6.4,��
2024/04/01,06:50,0.146,0.127,0.206,0.196,0.204,0.114,0.075,�k�k��,5.4,��
2024/04/01,07:00,0.147,0.126,0.205,0.195,0.205,0.115,0.075,�k�k��,5.5,��
2024/04/01,07:10,0.145,0.128,0.207,0.195,0.204,0.114,0.075,�k�k��,7.3,��
2024/04/01,07:20,0.145,0.126,0.206,0.197,0.204,0.116,0.075,�k��,6.2,��
2024/04/01,07:30,0.145,0.127,0.208,0.197,0.204,0.115,0.075,�k��,5.8,��
2024/04/01,07:40,0.145,0.127,0.206,0.196,0.206,0.115,0.075,�k��,5.5,��
2024/04/01,07:50,0.146,0.126,0.207,0.196,0.205,0.116,0.075,�k�k��,6.0,��
2024/04/01,08:00,0.146,0.126,0.207,0.195,0.205,0.114,0.075,�k�k��,4.7,��
2024/04/01,08:10,0.145,0.126,0.206,0.196,0.205,0.115,0.075,�k�k��,4.5,��
2024/04/01,08:20,0.146,0.126,0.208,0.197,0.205,0.115,0.075,�k�k��,5.1,��
2024/04/01,08:30,0.146,0.126,0.206,0.196,0.205,0.115,0.076,�k,6.0,��
2024/04/01,08:40,0.146,0.126,0.207,0.195,0.204,0.115,0.074,�k,4.8,��
2024/04/01,08:50,0.146,0.126,0.205,0.195,0.205,0.115,0.075,�k,3.4,��
2024/04/01,09:00,0.145,0.126,0.207,0.197,0.206,0.115,0.075,�k,6.6,��
2024/04/01,09:10,0.145,0.126,0.205,0.195,0.204,0.115,0.075,�k,8.6,��
2024/04/01,09:20,0.147,0.127,0.207,0.196,0.204,0.115,0.075,�k,6.7,��
2024/04/01,09:30,0.145,0.126,0.206,0.194,0.205,0.114,0.074,�k,6.2,��
2024/04/01,09:40,0.147,0.126,0.207,0.196,0.205,0.115,0.075,�k,6.7,��
2024/04/01,09:50,0.146,0.127,0.207,0.194,0.206,0.116,0.075,�k,7.9,��
2024/04/01,10:00,0.145,0.126,0.208,0.197,0.205,0.115,0.075,�k,7.6,��
2024/04/01,10:10,0.147,0.127,0.206,0.194,0.205,0.116,0.075,�k,6.2,��
2024/04/01,10:20,0.147,0.126,0.207,0.197,0.204,0.114,0.075,�k�k��,7.2,��
2024/04/01,10:30,0.146,0.127,0.207,0.194,0.206,0.115,0.075,�k,7.5,��
2024/04/01,10:40,0.145,0.127,0.208,0.197,0.204,0.115,0.075,�k,8.1,��
2024/04/01,10:50,0.146,0.127,0.206,0.195,0.207,0.116,0.075,�k,7.4,��
2024/04/01,11:00,0.146,0.126,0.208,0.196,0.205,0.115,0.075,�k,7.8,��
2024/04/01,11:10,0.146,0.126,0.207,0.197,0.205,0.115,0.075,�k,8.1,��
2024/04/01,11:20,0.146,0.127,0.208,0.197,0.204,0.116,0.075,�k,6.6,��
2024/04/01,11:30,0.146,0.126,0.206,0.196,0.203,0.115,0.075,�k,7.0,��
2024/04/01,11:40,0.146,0.127,0.208,0.196,0.206,0.115,0.075,�k,7.1,��
2024/04/01,11:50,0.147,0.126,0.206,0.197,0.205,0.114,0.075,�k,7.6,��
2024/04/01,12:00,0.146,0.126,0.207,0.196,0.205,0.115,0.076,�k,6.8,��
2024/04/01,12:10,0.146,0.126,0.206,0.197,0.204,0.114,0.075,�k�k��,7.3,��
2024/04/01,12:20,0.147,0.127,0.208,0.196,0.206,0.115,0.075,�k�k��,7.4,��
2024/04/01,12:30,0.147,0.126,0.206,0.197,0.205,0.115,0.075,�k�k��,7.1,��
2024/04/01,12:40,0.146,0.128,0.208,0.196,0.206,0.114,0.075,�k�k��,6.7,��
2024/04/01,12:50,0.146,0.126,0.207,0.197,0.205,0.115,0.075,�k,6.2,��
2024/04/01,13:00,0.146,0.127,0.207,0.196,0.205,0.115,0.075,�k,5.8,��
2024/04/01,13:10,0.146,0.126,0.206,0.196,0.205,0.115,0.075,�k,6.9,��
2024/04/01,13:20,0.146,0.127,0.207,0.197,0.206,0.115,0.075,�k�k��,7.2,��
2024/04/01,13:30,0.146,0.126,0.206,0.196,0.205,0.114,0.075,�k�k��,6.7,��
2024/04/01,13:40,0.146,0.127,0.208,0.198,0.206,0.115,0.075,�k�k��,7.9,��
2024/04/01,13:50,0.146,0.126,0.207,0.196,0.206,0.115,0.075,�k�k��,5.6,��
2024/04/01,14:00,0.146,0.127,0.207,0.197,0.206,0.115,0.075,�k�k��,5.9,��
2024/04/01,14:10,0.147,0.127,0.207,0.196,0.205,0.114,0.075,�k�k��,5.2,��
2024/04/01,14:20,0.147,0.128,0.208,0.198,0.206,0.114,0.075,�k�k��,7.8,��
2024/04/01,14:30,0.147,0.127,0.208,0.197,0.205,0.115,0.075,�k�k��,8.1,��
2024/04/01,14:40,0.146,0.126,0.208,0.196,0.205,0.114,0.076,�k�k��,6.7,��
2024/04/01,14:50,0.147,0.127,0.208,0.196,0.205,0.116,0.075,�k�k��,6.6,��
2024/04/01,15:00,0.147,0.127,0.209,0.198,0.205,0.116,0.075,�k�k��,5.9,��
2024/04/01,15:10,0.147,0.127,0.206,0.198,0.206,0.116,0.075,�k,5.1,��
2024/04/01,15:20,0.147,0.126,0.209,0.197,0.206,0.116,0.075,�k,5.7,��
2024/04/01,15:30,0.147,0.127,0.209,0.197,0.207,0.114,0.075,�k,5.6,��
2024/04/01,15:40,0.147,0.126,0.209,0.196,0.207,0.115,0.075,�k,5.3,��
2024/04/01,15:50,0.146,0.127,0.209,0.193,0.204,0.115,0.075,�k,4.6,��
2024/04/01,16:00,0.147,0.127,0.208,0.194,0.207,0.115,0.075,�k�k��,3.9,��
2024/04/01,16:10,0.147,0.127,0.209,0.193,0.205,0.115,0.074,�k�k��,3.0,��
2024/04/01,16:20,0.148,0.128,0.209,0.193,0.206,0.115,0.075,�k�k��,3.7,��
2024/04/01,16:30,0.147,0.128,0.208,0.193,0.205,0.115,0.076,�k��,4.1,��
2024/04/01,16:40,0.146,0.128,0.209,0.193,0.207,0.115,0.075,�k��,3.6,��
2024/04/01,16:50,0.147,0.127,0.209,0.192,0.204,0.115,0.075,�k,1.9,��
2024/04/01,17:00,0.147,0.127,0.208,0.192,0.206,0.115,0.076,�k�k��,1.6,��
2024/04/01,17:10,0.146,0.128,0.209,0.192,0.204,0.115,0.076,�k�k��,2.9,��
2024/04/01,17:20,0.146,0.127,0.208,0.192,0.207,0.115,0.075,�k��,5.8,��
2024/04/01,17:30,0.146,0.127,0.209,0.192,0.206,0.116,0.075,���k��,8.9,��
2024/04/01,17:40,0.148,0.127,0.209,0.192,0.206,0.115,0.076,���k��,7.9,��
2024/04/01,17:50,0.146,0.128,0.208,0.193,0.207,0.115,0.075,�k��,7.4,��
2024/04/01,18:00,0.146,0.127,0.209,0.192,0.206,0.116,0.075,�k��,8.1,��
2024/04/01,18:10,0.147,0.127,0.208,0.193,0.207,0.115,0.076,�k��,8.7,��
2024/04/01,18:20,0.148,0.127,0.209,0.193,0.206,0.114,0.076,�k��,8.3,��
2024/04/01,18:30,0.145,0.127,0.209,0.193,0.205,0.115,0.075,�k��,5.5,��
2024/04/01,18:40,0.148,0.127,0.208,0.193,0.207,0.115,0.075,���k��,7.4,��
2024/04/01,18:50,0.146,0.127,0.209,0.193,0.206,0.115,0.075,�k��,9.5,��
2024/04/01,19:00,0.148,0.128,0.209,0.192,0.205,0.115,0.075,�k��,4.9,��
2024/04/01,19:10,0.147,0.127,0.209,0.192,0.206,0.115,0.075,�k��,4.6,��
2024/04/01,19:20,0.148,0.127,0.208,0.194,0.205,0.116,0.075,�k��,3.9,��
2024/04/01,19:30,0.148,0.127,0.210,0.193,0.206,0.116,0.076,�k��,4.6,��
2024/04/01,19:40,0.147,0.128,0.209,0.193,0.206,0.116,0.076,���k��,5.8,��
2024/04/01,19:50,0.147,0.127,0.208,0.193,0.205,0.115,0.075,���k��,8.1,��
2024/04/01,20:00,0.147,0.127,0.209,0.193,0.205,0.116,0.076,���k��,9.5,��
2024/04/01,20:10,0.147,0.128,0.209,0.193,0.206,0.115,0.075,���k��,9.6,��
2024/04/01,20:20,0.147,0.128,0.208,0.194,0.205,0.115,0.075,���k��,8.9,�L
2024/04/01,20:30,0.146,0.127,0.209,0.192,0.207,0.115,0.075,���k��,9.2,�L
2024/04/01,20:40,0.147,0.127,0.208,0.193,0.205,0.115,0.074,���k��,9.2,��
2024/04/01,20:50,0.146,0.127,0.208,0.192,0.205,0.115,0.075,���k��,8.7,��
2024/04/01,21:00,0.147,0.128,0.208,0.193,0.205,0.115,0.075,���k��,9.5,��
2024/04/01,21:10,0.147,0.126,0.208,0.192,0.206,0.116,0.076,���k��,7.3,��
2024/04/01,21:20,0.147,0.128,0.209,0.193,0.204,0.116,0.076,���k��,4.3,��
2024/04/01,21:30,0.147,0.126,0.208,0.193,0.205,0.115,0.075,���k��,6.1,��
2024/04/01,21:40,0.148,0.127,0.210,0.194,0.206,0.116,0.076,���k��,6.5,��
2024/04/01,21:50,0.147,0.128,0.209,0.192,0.206,0.116,0.075,���k��,6.5,��
2024/04/01,22:00,0.148,0.127,0.209,0.193,0.206,0.116,0.075,���k��,5.6,��
2024/04/01,22:10,0.147,0.127,0.209,0.194,0.206,0.115,0.076,���k��,5.7,��
2024/04/01,22:20,0.146,0.128,0.209,0.192,0.205,0.116,0.076,��,5.5,��
2024/04/01,22:30,0.147,0.127,0.209,0.193,0.205,0.116,0.075,��,7.6,��
2024/04/01,22:40,0.147,0.127,0.210,0.194,0.205,0.116,0.076,��,7.1,��
2024/04/01,22:50,0.147,0.127,0.208,0.193,0.205,0.115,0.075,��,7.1,��
2024/04/01,23:00,0.147,0.127,0.209,0.193,0.206,0.115,0.075,��,5.0,��
2024/04/01,23:10,0.146,0.128,0.209,0.193,0.206,0.115,0.076,��,4.0,��
2024/04/01,23:20,0.148,0.127,0.209,0.192,0.205,0.115,0.076,��,7.3,��
2024/04/01,23:30,0.146,0.127,0.209,0.193,0.206,0.116,0.076,��,8.5,��
2024/04/01,23:40,0.146,0.128,0.209,0.192,0.205,0.115,0.075,��,9.5,��
2024/04/01,23:50,0.147,0.127,0.209,0.194,0.206,0.115,0.075,��,5.6,��
